Location: Julian California
(33.0790°N, 116.6010°W)
Time: 04:03:26
(UTC-07:00)

Cosmos 2058 - Visible Passes

Search period start: 14 October 2019 00:00
Search period end: 24 October 2019 00:00
Orbit: 563 x 583 km, 82.5° (Epoch: 14 October)

Date Brightness Start Highest point End Pass type
(mag) Time Alt. Az. Time Alt. Az. Time Alt. Az.
18 Oct 5.5 20:02:43 10° N 20:02:49 11° N 20:02:49 11° N visible
19 Oct 5.2 20:05:37 10° N 20:06:27 16° N 20:06:27 16° N visible
20 Oct 4.7 20:08:35 10° N 20:10:17 24° NNW 20:10:17 24° NNW visible
21 Oct 4.1 20:11:37 10° NNW 20:14:26 38° NW 20:14:26 38° NW visible
22 Oct 4.8 18:40:03 10° NE 18:41:36 12° ENE 18:42:51 11° E visible
22 Oct 4.2 20:14:44 10° NNW 20:18:40 40° W 20:19:12 38° WSW visible
23 Oct 4.5 18:42:04 10° NE 18:44:40 16° ENE 18:47:16 10° ESE visible
23 Oct 4.8 20:17:57 10° NNW 20:21:35 29° W 20:25:12 10° SSW visible
